OBJECT A, 65945

Orbit data source: Space-Track

You're viewing an Uncataloged Satellite

Recently launched and/or uncataloged satellites may have evolving metadata. Metadata may include but not limited to: Owner, Maufacturer, Bus, Motor, and Mission.

OBJECT A, 65945 is a satellite owned by CAST (CN) in LEO that was launched on Mon, 13 Oct 2025 UTC via a CHANG ZHENG 2D launch vehicle from the Jiuquan Satellite Launch Center, China (JSC). Unknown objects in Earth's orbit typically refer to objects detected orbiting the Earth but have not yet been identified or cataloged. These objects could be anything from previously untracked satellites, spent rocket stages, debris from satellite collisions, or even natural meteoroids temporarily captured by Earth's gravity.

Loading next visibility...
Identifier
65945, 2025-227A
Orbit
LEO
Country
Flag of CNCN / PRC
Related business
Manufacturer
CAST
Mission
Operational spacecraft
Bus & Motor
SY30, Unknown motor
Mass
~1,000 kg wet, ~1,000 kg dry
Launch date (UTC)
2025-10-13 (2 months ago)
Launch vehicle
CHANG ZHENG 2D
Launch site
Jiuquan Satellite Launch Center, China (JSC)
Object type
Unknown
Shape & HBR
Unknown shape, 1.1 m
Radar Cross Section
RCS unknown

Expand to show TLE details & history
Last TLE update: 14 hours ago

TLE from 14 hours ago
0 OBJECT A
1 65945U 25227A   25340.61640756  .00013781  00000-0  61406-3 0  9996
2 65945  80.0051  30.1913 0011744  94.7221 265.5348 15.21280581  8244
Epoch: 2025-12-06T14:47Z
TLE epoch observation values (Epoch: 2025-12-06T14:47:37.613Z)
Latitude
0.00002°
Longitude
92.643°
Altitude
505.621 km
Speed
7.611 km/s
True Right ascension
02h 00m 45s
True Declination
0° 00' 00"
Sunlit
Object was in full shadow at epoch
Visualization orbit readout
Latitude
Unknown
Longitude
Unknown
Altitude
Unknown
Speed
Unknown
Apparent Right ascension
Unknown
Apparent Declination
Unknown
Sunlit
N/A
Visualization observer readout
Local Sidereal Time
02:34:18
Azimuth
Unknown
Elevation
Unknown
Doppler factor
Unknown
Orbital elements
Apogee altitude
507.147 km
Perigee altitude
490.994 km
Semi-major axis
6,877.208 km
Eccentricity
0.00117
Inclination
80.0051°
RAAN
30.1913°
Arg. of periapsis
94.7221°
True anomaly
265.40065°
Mean anomaly
265.5348°
Eccentric anomaly
265.46772°
Mean motion
3.80562 °/min
Orbital period
94.6 mins
BSTAR
0.00061406
Loading maneuver chart data...
Computing Atmospheric mass density...
Loading historical data...
Loading historical data...
Loading historical data...
Loading historical data...
Loading historical data...
Loading historical data...
Loading historical data...
Other satellites on launch #227 in the year 2025 (2025-10-13 UTC)

Documentation

Showing up to 5 results
|